Weather in Salym

Russia / Khanty-Mansi Autonomous Okrug — Yugra     60°04′28″N   71°27′48″E
temp.,
°C
wind,
m/s
gust,
m/s
humid.,
%
clouds,
%
prec.,
mm/h
press.,
hPa
HPBL,
m
17 may, mon
mon1723:00+12ese248990 0.0 101581
02:00+12s3895100 1.9 1014289
05:00+12s389696 1.9 1012238
08:00+16sw258384 0.0 1011402
11:00+22wnw3555100 0.0 1010775
14:00+25w4844100 0.0 10092306
17:00+23w255483 0.0 1006348
20:00+16w2393100 3.2 1007127
18 may, tue
tue1823:00+14nw2796100 6.0 1007210
02:00+13nw379847 1.5 1007249
05:00+13n369697 1.6 1008401
08:00+12nne3690100 0.1 1010561
11:00+11nne4789100 0.4 1012761
14:00+9nne51090100 0.8 1014643
17:00+13n596535 0.8 10161404
20:00+11n410565 0.0 1018518
19 may, wed
wed1923:00+7n31067100 0.0 1020243
02:00+5n26705 0.0 1022111
05:00+5n27694 0.0 1023198
08:00+10nnw354696 0.0 1023859
11:00+12nnw4637100 0.0 10231616
14:00+13n463552 0.0 10231769
17:00+13n463862 0.0 10231740
20:00+10ene115597 0.0 102212
20 may, thu
thu2023:00+7sse2463100 0.0 102293
02:00+6sse386798 0.0 1020211
05:00+8ssw41369100 0.0 1016431
08:00+14wsw51559100 0.0 1012590
11:00+22wnw61145100 0.0 10091186
14:00+26wnw7133849 0.1 10072731
17:00+28wnw6133661 0.1 10073082
20:00+23wnw5144694 0.0 1006597
21 may, fri
fri2123:00+16nnw378298 0.3 1009217
02:00+15wnw31185100 0.1 1009259
05:00+15nnw311845 0.1 1011498
08:00+19nnw476518 0.0 1012815
11:00+22nnw47529 0.0 10131315
14:00+23n584636 0.0 10131564
17:00+21n564811 0.0 10141235
20:00+17ene47625 0.0 1016383